Mattoon, IL

6:02 AM CST on November 13, 2019 (GMT -0600)
Coles County Memorial

Weather History for KMTO - September, 2019

Change the Weather History Date:

Saturday, September 14, 2019

  Actual Average Record
Temperature  
Mean Temperature 69 °F 68 °F  
Max Temperature 82 °F 79 °F 94 °F (1954)
Min Temperature 55 °F 56 °F 39 °F (1964)
Degree Days  
Heating Degree Days 0 1  
Month to date heating degree days 0 8  
Since 1 July heating degree days 0 13  
Cooling Degree Days 4 4  
Month to date cooling degree days 99 77  
Year to date cooling degree days 1084 997  
Growing Degree Days 20 (Base 50)    
Moisture  
Dew Point 57 °F    
Average Humidity 70    
Maximum Humidity 97    
Minimum Humidity 43    
Precipitation  
Precipitation 0.00 in 0.10 in 1.61 in (1993)
Month to date precipitation 0.47 1.54  
Year to date precipitation 25.60 27.44  
Sea Level Pressure  
Sea Level Pressure 30.21 in    
Wind  
Wind Speed 5 mph (South)    
Max Wind Speed 12 mph    
Max Gust Speed 16 mph    
Visibility 10 miles    
Events      
T = Trace of Precipitation, MM = Missing Value Source: NWS Daily Summary

Daily Weather History Graph

Daily Weather History Graph

Search for Another Location

Airport or City:

Astronomy

Sep. 14, 2019 Rise Set
Actual Time 6:33 AM CDT 7:03 PM CDT
Civil Twilight 6:06 AM CDT 7:30 PM CDT
Nautical Twilight 5:34 AM CDT 8:02 PM CDT
Astronomical Twilight 5:01 AM CDT 8:34 PM CDT
Moon 7:44 PM CDT (9/14) 6:46 AM CDT (9/14)
Length of Visible Light 13h 24m
Length of Day
12h 30m
Full, 100% of the Moon is Illuminated
Sep 14
Full
Sep 21
Last Quarter
Sep 28
New
Oct 5
First Quarter
Oct 13
Full

Hourly Weather History & Observations

Time (CDT) Temp. Heat Index Dew Point Humidity Pressure Visibility Wind Dir Wind Speed Gust Speed Precip Events Conditions
12:53 AM 57.9 °F - 55.0 °F 90% 30.19 in 10.0 mi WNW 5.8 mph - N/A   Clear
1:53 AM 60.1 °F - 55.9 °F 86% 30.19 in 10.0 mi Calm Calm - N/A   Clear
2:53 AM 61.0 °F - 57.9 °F 90% 30.20 in 10.0 mi SSW 3.5 mph - N/A   Clear
3:53 AM 60.1 °F - 57.0 °F 90% 30.21 in 10.0 mi WSW 3.5 mph - N/A   Clear
4:53 AM 60.1 °F - 55.9 °F 86% 30.22 in 10.0 mi WSW 3.5 mph - N/A   Clear
5:53 AM 57.0 °F - 55.0 °F 93% 30.24 in 10.0 mi Calm Calm - N/A   Clear
6:53 AM 57.0 °F - 55.0 °F 93% 30.25 in 10.0 mi Calm Calm - N/A   Clear
7:53 AM 61.0 °F - 59.0 °F 93% 30.27 in 10.0 mi SSE 3.5 mph - N/A   Clear
8:53 AM 66.9 °F - 59.0 °F 76% 30.27 in 10.0 mi Calm Calm - N/A   Clear
9:53 AM 73.9 °F - 57.9 °F 57% 30.27 in 10.0 mi Calm Calm - N/A   Clear
10:53 AM 75.0 °F - 55.0 °F 50% 30.26 in 10.0 mi SE 4.6 mph - N/A   Clear
11:53 AM 78.1 °F - 55.0 °F 45% 30.25 in 10.0 mi SSE 3.5 mph - N/A   Clear
12:53 PM 80.1 °F 80.4 °F 57.0 °F 45% 30.23 in 10.0 mi South 8.1 mph - N/A   Clear
1:53 PM 81.0 °F 81.0 °F 57.0 °F 44% 30.22 in 10.0 mi South 8.1 mph - N/A   Clear
2:53 PM 82.0 °F 81.7 °F 57.0 °F 42% 30.20 in 10.0 mi South 9.2 mph - N/A   Clear
3:53 PM 82.0 °F 82.0 °F 57.9 °F 44% 30.18 in 10.0 mi SSW 8.1 mph - N/A   Clear
4:53 PM 81.0 °F 81.1 °F 57.9 °F 45% 30.16 in 10.0 mi South 8.1 mph - N/A   Clear
5:53 PM 80.1 °F 80.7 °F 59.0 °F 48% 30.16 in 10.0 mi SSW 4.6 mph - N/A   Clear
6:53 PM 75.9 °F - 59.0 °F 56% 30.15 in 10.0 mi South 5.8 mph - N/A   Clear
7:53 PM 71.1 °F - 60.1 °F 68% 30.16 in 10.0 mi SSE 6.9 mph - N/A   Clear
8:53 PM 70.0 °F - 60.1 °F 71% 30.17 in 10.0 mi South 5.8 mph - N/A   Clear
9:53 PM 68.0 °F - 59.0 °F 73% 30.17 in 10.0 mi SSE 6.9 mph - N/A   Clear
10:53 PM 66.9 °F - 59.0 °F 76% 30.17 in 10.0 mi SSE 6.9 mph - N/A   Clear
11:53 PM 68.0 °F - 59.0 °F 73% 30.17 in 10.0 mi South 5.8 mph - N/A   Clear